Breckenridge, TX

2:22 AM CST on November 22, 2017 (GMT -0600)
Stephens County

Weather History for KBKD - December, 2011

Change the Weather History Date:

Thursday, December 22, 2011

  Actual Average (KMWL) Record (KMWL)
Temperature  
Mean Temperature 40 °F -  
Max Temperature 46 °F 54 °F 77 °F (2015)
Min Temperature 35 °F 30 °F 17 °F (1998)
Degree Days  
Heating Degree Days 24    
Moisture  
Dew Point 34 °F    
Average Humidity 73    
Maximum Humidity 93    
Minimum Humidity 57    
Precipitation  
Precipitation 0.00 in - - ()
Sea Level Pressure  
Sea Level Pressure 30.02 in    
Wind  
Wind Speed 8 mph (WNW)    
Max Wind Speed 17 mph    
Max Gust Speed 26 mph    
Visibility 10 miles    
Events      
Averages and records for this station are not official NWS values.
T = Trace of Precipitation, MM = Missing Value Source: NWS Daily Summary

Daily Weather History Graph

Daily Weather History Graph

Search for Another Location

Airport or City:

Trip Planner

Search our weather history database for the weather conditions in past years. The results will help you decide how hot, cold, wet, or windy it might be!

Date:

Astronomy

Dec. 22, 2011 Rise Set
Actual Time 7:34 AM CST 5:34 PM CST
Civil Twilight 7:06 AM CST 6:01 PM CST
Nautical Twilight 6:36 AM CST 6:32 PM CST
Astronomical Twilight 6:06 AM CST 7:02 PM CST
Moon 5:20 AM CST 3:45 PM CST
Length of Visible Light 10h 54m
Length of Day
9h 59m
Waning Crescent, 5% of the Moon is Illuminated
Dec 22
Waning Crescent
Dec 24
New
Jan 1
First Quarter
Jan 9
Full
Jan 16
Last Quarter

Hourly Weather History & Observations

Time (CST) Temp. Windchill Dew Point Humidity Pressure Visibility Wind Dir Wind Speed Gust Speed Precip Events Conditions
12:15 AM 44.6 °F 40.2 °F 35.6 °F 71% 29.90 in 10.0 mi SSE 8.1 mph - N/A   Clear
12:35 AM 44.6 °F 40.7 °F 35.6 °F 71% 29.88 in 10.0 mi SSE 6.9 mph - N/A   Clear
12:55 AM 44.6 °F 42.2 °F 35.6 °F 71% 29.87 in 10.0 mi South 4.6 mph - N/A   Clear
1:15 AM 44.6 °F 42.2 °F 35.6 °F 71% 29.87 in 10.0 mi SSW 4.6 mph - N/A   Clear
1:35 AM 42.8 °F 39.3 °F 35.6 °F 76% 29.87 in 10.0 mi SSW 5.8 mph - N/A   Clear
1:55 AM 44.6 °F 40.2 °F 35.6 °F 71% 29.88 in 10.0 mi South 8.1 mph - N/A   Clear
2:15 AM 44.6 °F 40.7 °F 35.6 °F 71% 29.86 in 10.0 mi South 6.9 mph - N/A   Clear
2:35 AM 44.6 °F 41.4 °F 35.6 °F 71% 29.86 in 10.0 mi South 5.8 mph - N/A   Clear
2:55 AM 44.6 °F 40.2 °F 35.6 °F 71% 29.87 in 10.0 mi South 8.1 mph - N/A   Clear
3:15 AM 44.6 °F 39.7 °F 35.6 °F 71% 29.87 in 10.0 mi South 9.2 mph - N/A   Clear
3:35 AM 44.6 °F 40.7 °F 35.6 °F 71% 29.86 in 10.0 mi South 6.9 mph - N/A   Clear
3:55 AM 42.8 °F 40.1 °F 35.6 °F 76% 29.88 in 10.0 mi South 4.6 mph - N/A   Clear
4:15 AM 42.8 °F - 35.6 °F 76% 29.88 in 10.0 mi Calm Calm - N/A   Clear
4:35 AM 41.0 °F 38.0 °F 35.6 °F 81% 29.88 in 10.0 mi South 4.6 mph - N/A   Clear
4:55 AM 41.0 °F 36.4 °F 35.6 °F 81% 29.88 in 10.0 mi South 6.9 mph - N/A   Clear
5:15 AM 41.0 °F - 35.6 °F 81% 29.88 in 10.0 mi Calm Calm - N/A   Clear
5:35 AM 41.0 °F 39.0 °F 35.6 °F 81% 29.89 in 10.0 mi South 3.5 mph - N/A   Clear
5:55 AM 37.4 °F 34.9 °F 33.8 °F 87% 29.90 in 10.0 mi WSW 3.5 mph - N/A   Clear
6:15 AM 37.4 °F 34.9 °F 35.6 °F 93% 29.91 in 10.0 mi SW 3.5 mph - N/A   Clear
6:35 AM 39.2 °F 35.9 °F 33.8 °F 81% 29.92 in 10.0 mi SSW 4.6 mph - N/A   Clear
6:55 AM 37.4 °F 33.8 °F 33.8 °F 87% 29.93 in 10.0 mi SW 4.6 mph - N/A   Clear
7:15 AM 37.4 °F 33.8 °F 33.8 °F 87% 29.95 in 10.0 mi SW 4.6 mph - N/A   Clear
7:35 AM 37.4 °F 32.8 °F 33.8 °F 87% 29.96 in 10.0 mi WSW 5.8 mph - N/A   Clear
7:55 AM 35.6 °F 30.7 °F 33.8 °F 93% 29.98 in 10.0 mi West 5.8 mph - N/A   Clear
8:15 AM 39.2 °F 35.0 °F 35.6 °F 87% 29.98 in 10.0 mi WNW 5.8 mph - N/A   Clear
8:35 AM 41.0 °F 36.4 °F 35.6 °F 81% 30.01 in 10.0 mi NW 6.9 mph - N/A   Clear
8:55 AM 42.8 °F 36.6 °F 33.8 °F 70% 30.03 in 10.0 mi NNW 11.5 mph 16.1 mph N/A   Clear
9:15 AM 42.8 °F 35.8 °F 33.8 °F 70% 30.04 in 10.0 mi NW 13.8 mph 19.6 mph N/A   Clear
9:55 AM 42.8 °F 36.6 °F 32.0 °F 66% 30.07 in 10.0 mi NNW 11.5 mph 18.4 mph N/A   Clear
10:15 AM 42.8 °F 37.0 °F 32.0 °F 66% 30.08 in 10.0 mi NNW 10.4 mph 19.6 mph N/A   Clear
10:35 AM 42.8 °F 35.8 °F 32.0 °F 66% 30.09 in 10.0 mi NNW 13.8 mph 18.4 mph N/A   Clear
10:55 AM 44.6 °F 37.8 °F 32.0 °F 61% 30.10 in 10.0 mi NW 15.0 mph 18.4 mph N/A   Clear
11:15 AM 44.6 °F 38.8 °F 32.0 °F 61% 30.11 in 10.0 mi NW 11.5 mph 16.1 mph N/A   Clear
11:35 AM 46.4 °F 41.1 °F 32.0 °F 57% 30.11 in 10.0 mi NNW 11.5 mph 20.7 mph N/A   Clear
11:55 AM 46.4 °F 41.5 °F 32.0 °F 57% 30.11 in 10.0 mi NNW 10.4 mph 23.0 mph N/A   Clear
12:15 PM 46.4 °F 39.5 °F 32.0 °F 57% 30.10 in 10.0 mi NW 17.3 mph 21.9 mph N/A   Clear
12:35 PM 46.4 °F 40.4 °F 32.0 °F 57% 30.09 in 10.0 mi NW 13.8 mph 19.6 mph N/A   Clear
12:55 PM 46.4 °F 39.8 °F 32.0 °F 57% 30.10 in 10.0 mi NNW 16.1 mph 23.0 mph N/A   Clear
1:15 PM 46.4 °F 39.5 °F 32.0 °F 57% 30.11 in 10.0 mi NNW 17.3 mph - N/A   Clear
1:55 PM 42.8 °F 34.8 °F 33.8 °F 70% 30.11 in 10.0 mi NNW 17.3 mph 26.5 mph N/A   Mostly Cloudy
2:15 PM 41.0 °F 33.5 °F 33.8 °F 76% 30.11 in 10.0 mi NNW 13.8 mph 23.0 mph N/A   Overcast
2:35 PM 42.8 °F 35.1 °F 33.8 °F 70% 30.12 in 10.0 mi NNW 16.1 mph 21.9 mph N/A   Overcast
2:55 PM 42.8 °F 35.8 °F 33.8 °F 70% 30.13 in 10.0 mi NW 13.8 mph 21.9 mph N/A   Overcast
3:15 PM 42.8 °F 37.5 °F 33.8 °F 70% 30.13 in 10.0 mi NNW 9.2 mph 20.7 mph N/A   Overcast
3:35 PM 42.8 °F 36.2 °F 33.8 °F 70% 30.14 in 10.0 mi NNW 12.7 mph 23.0 mph N/A   Overcast
3:55 PM 42.8 °F 35.1 °F 33.8 °F 70% 30.16 in 10.0 mi NW 16.1 mph 21.9 mph N/A   Overcast
4:15 PM 42.8 °F 36.2 °F 33.8 °F 70% 30.17 in 10.0 mi NNW 12.7 mph 19.6 mph N/A   Overcast
4:35 PM 42.8 °F 35.4 °F 33.8 °F 70% 30.18 in 10.0 mi NNW 15.0 mph 21.9 mph N/A   Overcast
4:55 PM 42.8 °F 36.2 °F 33.8 °F 70% 30.19 in 10.0 mi NNW 12.7 mph 17.3 mph N/A   Overcast
5:15 PM 41.0 °F 32.8 °F 33.8 °F 76% 30.19 in 10.0 mi NNW 16.1 mph 23.0 mph N/A   Overcast
5:35 PM 41.0 °F 33.5 °F 33.8 °F 76% 30.20 in 10.0 mi NNW 13.8 mph 21.9 mph N/A   Overcast
5:55 PM 41.0 °F 34.7 °F 33.8 °F 76% 30.20 in 7.0 mi North 10.4 mph - N/A   Overcast
6:15 PM 41.0 °F 33.9 °F 35.6 °F 81% 30.23 in 7.0 mi NNW 12.7 mph 24.2 mph N/A   Overcast
6:35 PM 39.2 °F 31.2 °F 33.8 °F 81% 30.25 in 5.0 mi NNW 13.8 mph 26.5 mph N/A   Haze
6:55 PM 39.2 °F 31.2 °F 33.8 °F 81% 30.25 in 7.0 mi NNW 13.8 mph 23.0 mph N/A   Overcast
7:35 PM 37.4 °F 27.8 °F 33.8 °F 87% 30.27 in 7.0 mi North 17.3 mph 24.2 mph N/A   Overcast
7:55 PM 37.4 °F 30.3 °F 33.8 °F 87% 30.27 in 7.0 mi North 10.4 mph 17.3 mph N/A   Overcast
8:15 PM 37.4 °F 28.9 °F 33.8 °F 87% 30.30 in 5.0 mi North 13.8 mph 19.6 mph N/A   Overcast
8:35 PM 37.4 °F 30.3 °F 35.6 °F 93% 30.30 in 4.0 mi North 10.4 mph 16.1 mph N/A   Overcast
9:15 PM 37.4 °F 27.8 °F 35.6 °F 93% 30.32 in 4.0 mi North 17.3 mph 23.0 mph N/A   Overcast
9:35 PM 37.4 °F 29.3 °F 35.6 °F 93% 30.32 in 4.0 mi North 12.7 mph 20.7 mph N/A   Overcast
9:55 PM 35.6 °F 27.1 °F 35.6 °F 100% 30.33 in 7.0 mi North 12.7 mph 21.9 mph N/A   Overcast
10:15 PM 35.6 °F 28.6 °F 33.8 °F 93% 30.34 in 10.0 mi North 9.2 mph 17.3 mph N/A   Overcast
10:35 PM 35.6 °F 27.1 °F 33.8 °F 93% 30.35 in 10.0 mi North 12.7 mph 19.6 mph N/A   Overcast
10:55 PM 35.6 °F 27.1 °F 32.0 °F 87% 30.36 in 10.0 mi North 12.7 mph 21.9 mph N/A   Overcast
11:15 PM 35.6 °F 26.6 °F 32.0 °F 87% 30.35 in 10.0 mi North 13.8 mph 20.7 mph N/A   Overcast
11:35 PM 35.6 °F 28.0 °F 32.0 °F 87% 30.36 in 10.0 mi North 10.4 mph 18.4 mph N/A   Overcast
11:55 PM 35.6 °F 27.1 °F 32.0 °F 87% 30.36 in 10.0 mi North 12.7 mph 20.7 mph N/A   Overcast